Location: Ferintosh
(52.7647°N, 112.9692°W)
Time: 01:57:03
(UTC+00:00)

Transit 2A Rocket - Pass Details

Date: 19 May 2024
Orbit: 591 x 895 km, 66.7° (Epoch: 20 May)

Event Time Altitude Azimuth Distance (km) Brightness Sun altitude
Rises 17:30:15 0° 311° (NW) 3,254 7.9 50.1°
Reaches altitude 10° 17:33:06 10° 326° (NW) 2,380 7.3 50.4°
Maximum altitude 17:37:26 23° 18° (NNE) 1,718 6.9 50.8°
Drops below altitude 10° 17:41:59 10° 69° (ENE) 2,515 8.0 51.3°
Sets 17:45:06 0° 84° (E) 3,484 8.7 51.6°
